Weather History for KBED - July, 2013

Change the Weather History Date:

Tuesday, July 23, 2013

  Actual Average Record
Temperature  
Mean Temperature 75 °F -  
Max Temperature 82 °F 83 °F 95 °F (1978)
Min Temperature 68 °F 59 °F 48 °F (1976)
Cooling Degree Days 10    
Growing Degree Days 25 (Base 50)    
Moisture  
Dew Point 72 °F    
Average Humidity 97    
Maximum Humidity 100    
Minimum Humidity 74    
Precipitation  
Precipitation 1.07 in - - ()
Sea Level Pressure  
Sea Level Pressure 29.62 in    
Wind  
Wind Speed 6 mph (SE)    
Max Wind Speed 20 mph    
Max Gust Speed 38 mph    
Visibility 7 miles    
Events Rain , Thunderstorm    
Averages and records for this station are not official NWS values.
T = Trace of Precipitation, MM = Missing Value Source: NWS Daily Summary

Daily Weather History Graph

Daily Weather History Graph

Search for Another Location

Airport or City:

Trip Planner

Search our weather history database for the weather conditions in past years. The results will help you decide how hot, cold, wet, or windy it might be!

Date:

Astronomy

Jul. 23, 2013 Rise Set
Actual Time 5:28 AM EDT 8:14 PM EDT
Civil Twilight 4:55 AM EDT 8:46 PM EDT
Nautical Twilight 4:14 AM EDT 9:27 PM EDT
Astronomical Twilight 3:26 AM EDT 10:15 PM EDT
Moon 8:36 PM EDT (7/23) 6:36 AM EDT (7/23)
Length of Visible Light 15h 50m
Length of Day
14h 45m
Full, 99% of the Moon is Illuminated
Jul 23
Full
Jul 29
Last Quarter
Aug 6
New
Aug 14
First Quarter
Aug 20
Full

Hourly Weather History & Observations

Time (EDT) Temp. Heat Index Dew Point Humidity Pressure Visibility Wind Dir Wind Speed Gust Speed Precip Events Conditions
1:56 AM 68.0 °F - 68.0 °F 100% 29.86 in 5.0 mi East 6.9 mph - 0.00 in   Overcast
2:25 AM 68.0 °F - 68.0 °F 100% 29.81 in 2.5 mi ENE 6.9 mph - N/A   Overcast
2:53 AM 68.0 °F - 68.0 °F 100% 29.80 in 3.0 mi East 5.8 mph - N/A   Overcast
2:56 AM 69.1 °F - 68.0 °F 96% 29.83 in 4.0 mi East 5.8 mph - N/A   Overcast
3:56 AM 69.1 °F - 69.1 °F 100% 29.80 in 3.0 mi East 6.9 mph - N/A   Overcast
4:56 AM 69.1 °F - 69.1 °F 100% 29.78 in 5.0 mi East 9.2 mph - N/A   Overcast
6:56 AM 69.1 °F - 69.1 °F 100% 29.75 in 4.0 mi East 9.2 mph - 0.12 in Rain Rain
7:02 AM 69.8 °F - 69.8 °F 100% 29.71 in 1.8 mi ESE 8.1 mph - 0.08 in Rain Heavy Rain
7:15 AM 69.8 °F - 69.8 °F 100% 29.71 in 3.0 mi East 9.2 mph - 0.17 in Rain Light Rain
7:29 AM 69.8 °F - 69.8 °F 100% 29.70 in 7.0 mi ESE 8.1 mph - 0.19 in Rain Light Rain
7:56 AM 70.0 °F - 69.1 °F 97% 29.73 in 8.0 mi East 8.1 mph - 0.20 in Rain Light Rain
8:25 AM 69.8 °F - 69.8 °F 100% 29.68 in 4.0 mi East 5.8 mph - 0.04 in Rain Rain
8:56 AM 71.1 °F - 70.0 °F 96% 29.70 in 10.0 mi ESE 4.6 mph - 0.07 in Rain Light Rain
9:56 AM 72.0 °F - 72.0 °F 100% 29.68 in 10.0 mi SE 4.6 mph - 0.03 in   Overcast
10:25 AM 73.4 °F - 73.4 °F 100% 29.63 in 10.0 mi Calm Calm - 0.01 in   Overcast
10:56 AM 75.9 °F - 73.9 °F 94% 29.65 in 10.0 mi SSE 3.5 mph - 0.01 in   Overcast
11:09 AM 77.0 °F - 73.4 °F 89% 29.62 in 8.0 mi SSE 6.9 mph - N/A   Overcast
11:56 AM 78.1 °F - 73.0 °F 84% 29.63 in 8.0 mi SE 8.1 mph - N/A   Overcast
12:03 PM 78.8 °F - 73.4 °F 83% 29.60 in 10.0 mi SSE 8.1 mph - N/A   Overcast
12:49 PM 82.4 °F 88.2 °F 73.4 °F 74% 29.56 in 10.0 mi South 10.4 mph 19.6 mph N/A   Mostly Cloudy
12:56 PM 80.1 °F 84.2 °F 73.0 °F 79% 29.58 in 10.0 mi South 10.4 mph 18.4 mph N/A   Mostly Cloudy
1:04 PM 77.0 °F - 73.4 °F 89% 29.57 in 1.5 mi West 16.1 mph 21.9 mph 0.14 in Rain Heavy Rain
1:12 PM 73.4 °F - 73.4 °F 100% 29.58 in 0.8 mi West 6.9 mph 21.9 mph 0.21 in Rain Rain
1:16 PM 73.4 °F - 73.4 °F 100% 29.58 in 2.0 mi West 10.4 mph - 0.22 in Rain Rain
1:18 PM 73.4 °F - 73.4 °F 100% 29.58 in 3.0 mi West 10.4 mph - 0.22 in Rain Light Rain
1:23 PM 73.4 °F - 73.4 °F 100% 29.58 in 5.0 mi West 10.4 mph - 0.23 in Rain Light Rain
1:29 PM 73.4 °F - 73.4 °F 100% 29.58 in 1.8 mi WSW 6.9 mph - 0.27 in Rain Heavy Rain
1:38 PM 73.4 °F - 73.4 °F 100% 29.57 in 3.0 mi SW 4.6 mph - 0.29 in Rain Light Rain
1:56 PM 73.9 °F - 73.0 °F 97% 29.61 in 10.0 mi SSW 4.6 mph - 0.29 in   Overcast
2:56 PM 75.9 °F - 72.0 °F 87% 29.58 in 10.0 mi Calm Calm - 0.03 in   Mostly Cloudy
3:11 PM 77.0 °F - 73.4 °F 89% 29.54 in 10.0 mi Calm Calm - N/A   Mostly Cloudy
3:46 PM 78.8 °F - 73.4 °F 83% 29.57 in 2.5 mi WNW 19.6 mph 38.0 mph 0.06 in   Haze
3:49 PM 75.2 °F - 71.6 °F 89% 29.57 in 3.0 mi WNW 12.7 mph 38.0 mph 0.08 in Rain Light Rain
3:56 PM 72.0 °F - 72.0 °F 100% 29.60 in 3.0 mi Variable 5.8 mph 20.7 mph 0.16 in Rain Light Rain
3:59 PM 71.6 °F - 71.6 °F 100% 29.56 in 0.8 mi North 5.8 mph 20.7 mph 0.06 in Rain Light Rain
4:08 PM 71.6 °F - - N/A% 29.56 in 1.8 mi North 5.8 mph - 0.11 in Rain Light Rain
4:10 PM 71.6 °F - - N/A% 29.55 in 3.0 mi NNE 3.5 mph - 0.11 in Rain Light Rain
4:15 PM 71.6 °F - - N/A% 29.56 in 10.0 mi Calm Calm - 0.11 in Rain Light Rain
4:32 PM 73.4 °F - - N/A% 29.55 in 7.0 mi East 4.6 mph - 0.16 in Rain , Thunderstorm Light Thunderstorms and Rain
4:42 PM 73.4 °F - - N/A% 29.54 in 10.0 mi Calm Calm - 0.16 in   Overcast
4:56 PM 73.9 °F - - N/A% 29.57 in 10.0 mi Calm Calm - 0.16 in   Overcast
5:56 PM 75.0 °F - 73.9 °F 96% 29.57 in 10.0 mi Calm Calm - N/A   Scattered Clouds
6:08 PM 73.4 °F - 73.4 °F 100% 29.55 in 10.0 mi ENE 3.5 mph - 0.00 in Rain Light Rain
6:19 PM 73.4 °F - 73.4 °F 100% 29.55 in 10.0 mi East 5.8 mph - 0.00 in   Mostly Cloudy
6:46 PM 73.4 °F - 73.4 °F 100% 29.55 in 10.0 mi East 5.8 mph - 0.00 in   Mostly Cloudy
6:56 PM 73.0 °F - 73.0 °F 100% 29.59 in 10.0 mi SE 3.5 mph - 0.00 in   Mostly Cloudy
7:03 PM 73.4 °F - 73.4 °F 100% 29.56 in 10.0 mi South 4.6 mph - N/A   Mostly Cloudy
7:11 PM 73.4 °F - 73.4 °F 100% 29.57 in 10.0 mi SSE 5.8 mph - N/A   Mostly Cloudy
7:40 PM 73.4 °F - 73.4 °F 100% 29.58 in 10.0 mi South 3.5 mph - 0.00 in Rain Light Rain
7:56 PM 73.0 °F - 73.0 °F 100% 29.62 in 10.0 mi SSW 4.6 mph - 0.00 in   Overcast
8:14 PM 73.4 °F - 73.4 °F 100% 29.59 in 10.0 mi SSW 5.8 mph - N/A   Overcast
8:32 PM 71.6 °F - 71.6 °F 100% 29.59 in 10.0 mi Calm Calm - N/A   Overcast
8:56 PM 72.0 °F - 72.0 °F 100% 29.61 in 10.0 mi Calm Calm - N/A   Overcast
9:56 PM 72.0 °F - 72.0 °F 100% 29.62 in 10.0 mi Calm Calm - N/A   Mostly Cloudy
10:56 PM 71.1 °F - 71.1 °F 100% 29.62 in 10.0 mi Calm Calm - N/A   Mostly Cloudy
11:52 PM 69.8 °F - 69.8 °F 100% 29.59 in 1.8 mi Calm Calm - N/A   Clear
11:56 PM 70.0 °F - 70.0 °F 100% 29.62 in 1.8 mi Calm Calm - N/A   Clear
11:59 PM 69.8 °F - 69.8 °F 100% 29.59 in 2.0 mi Calm Calm - N/A   Partly Cloudy